AEE188 ZULS-VNKT

Flight info

Callsign AEE188
Flight time 1h 12m
Altitude 32100
Route DEP10R IKUBI B345 NONIM/N0473F321 B345 KIMTI KMTI1G
Aircraft A320/M-SDE3FGHIRWY/LB1

Departure

Time 2026-04-12 20:33
Airport Lhasa Gonggar International Airport (ZULS)

Arrival

Time 2026-04-12 21:45
Airport Tribhuvan International Airport (VNKT)
Time Latitude Longitude Altitude Speed Heading
2026-04-12 19:58 29.29336 90.89074 11575 ft 0 kts 283°
2026-04-12 20:25 29.29332 90.89095 11569 ft 4 kts 281°
2026-04-12 20:25 29.29326 90.89125 11575 ft 4 kts 289°
2026-04-12 20:26 29.29314 90.89152 11572 ft 4 kts 299°
2026-04-12 20:26 29.29302 90.89174 11568 ft 1 kts 309°
2026-04-12 20:28 29.29304 90.89172 11568 ft 1 kts 310°
2026-04-12 20:29 29.29308 90.89171 11574 ft 1 kts 336°
2026-04-12 20:29 29.29316 90.89178 11574 ft 3 kts 26°
2026-04-12 20:29 29.29347 90.89190 11581 ft 6 kts 19°
2026-04-12 20:29 29.29391 90.89197 11577 ft 7 kts
2026-04-12 20:30 29.29440 90.89197 11574 ft 8 kts
2026-04-12 20:30 29.29497 90.89197 11574 ft 9 kts 360°
2026-04-12 20:30 29.29560 90.89196 11578 ft 10 kts 360°
2026-04-12 20:30 29.29630 90.89196 11581 ft 11 kts 360°
2026-04-12 20:31 29.29702 90.89195 11579 ft 9 kts 359°
2026-04-12 20:31 29.29761 90.89209 11578 ft 9 kts 45°
2026-04-12 20:31 29.29777 90.89273 11582 ft 9 kts 87°
2026-04-12 20:31 29.29778 90.89277 11583 ft 0 kts 87°
2026-04-12 20:32 29.29778 90.89289 11572 ft 7 kts 88°
2026-04-12 20:32 29.29783 90.89604 11587 ft 71 kts 90°
2026-04-12 20:32 29.29794 90.90388 11572 ft 123 kts 89°
2026-04-12 20:32 29.29811 90.91540 11581 ft 165 kts 89°
2026-04-12 20:33 29.29808 90.92959 11803 ft 175 kts 91°
2026-04-12 20:33 29.29781 90.94241 12445 ft 162 kts 93°
2026-04-12 20:33 29.29702 90.95636 12522 ft 182 kts 94°
2026-04-12 20:33 29.29607 90.97013 13343 ft 162 kts 96°
2026-04-12 20:34 29.29496 90.98345 13528 ft 183 kts 93°
2026-04-12 20:34 29.29540 90.99921 13512 ft 216 kts 82°
2026-04-12 20:34 29.30038 91.01674 13631 ft 244 kts 65°
2026-04-12 20:34 29.30904 91.03462 13841 ft 268 kts 59°
2026-04-12 20:35 29.31694 91.05431 14302 ft 277 kts 76°
2026-04-12 20:35 29.31962 91.07629 14953 ft 282 kts 92°
2026-04-12 20:35 29.31702 91.09870 15644 ft 287 kts 107°
2026-04-12 20:35 29.31139 91.12047 16377 ft 291 kts 106°
2026-04-12 20:36 29.30672 91.14324 17098 ft 296 kts 102°
2026-04-12 20:36 29.30338 91.16676 17819 ft 302 kts 98°
2026-04-12 20:36 29.30130 91.19123 18474 ft 308 kts 96°
2026-04-12 20:36 29.29961 91.21554 19089 ft 312 kts 96°
2026-04-12 20:37 29.29780 91.24055 19716 ft 317 kts 96°
2026-04-12 20:37 29.29594 91.26591 20343 ft 322 kts 96°
2026-04-12 20:37 29.29406 91.29166 20967 ft 327 kts 96°
2026-04-12 20:37 29.29097 91.31758 21575 ft 330 kts 107°
2026-04-12 20:38 29.28281 91.34221 22173 ft 332 kts 121°
2026-04-12 20:38 29.26988 91.36411 22760 ft 333 kts 135°
2026-04-12 20:38 29.25293 91.38213 23353 ft 333 kts 149°
2026-04-12 20:38 29.23293 91.39530 23827 ft 331 kts 163°
2026-04-12 20:39 29.21144 91.40488 24306 ft 333 kts 165°
2026-04-12 20:39 29.18968 91.41444 24748 ft 337 kts 165°
2026-04-12 20:39 29.16765 91.42415 25193 ft 341 kts 165°
2026-04-12 20:39 29.14530 91.43363 25636 ft 342 kts 172°
2026-04-12 20:40 29.12224 91.43793 26042 ft 333 kts 188°
2026-04-12 20:40 29.09966 91.43492 26448 ft 322 kts 204°
2026-04-12 20:40 29.07935 91.42524 26863 ft 312 kts 219°
2026-04-12 20:40 29.06245 91.41035 27130 ft 302 kts 233°
2026-04-12 20:41 29.04976 91.39150 27469 ft 297 kts 246°
2026-04-12 20:41 29.04162 91.37019 27910 ft 291 kts 258°
2026-04-12 20:41 29.03817 91.34757 28332 ft 288 kts 269°
2026-04-12 20:41 29.03949 91.32487 28713 ft 287 kts 281°
2026-04-12 20:42 29.04481 91.30275 29049 ft 292 kts 284°
2026-04-12 20:42 29.05069 91.28021 29172 ft 299 kts 284°
2026-04-12 20:42 29.05668 91.25712 29312 ft 308 kts 284°
2026-04-12 20:42 29.06283 91.23330 29448 ft 316 kts 284°
2026-04-12 20:43 29.06912 91.20884 29575 ft 324 kts 284°
2026-04-12 20:43 29.07554 91.18382 29718 ft 332 kts 284°
2026-04-12 20:43 29.08204 91.15848 29850 ft 342 kts 284°
2026-04-12 20:43 29.08883 91.13211 29967 ft 349 kts 284°
2026-04-12 20:44 29.09577 91.10525 30077 ft 356 kts 284°
2026-04-12 20:44 29.10282 91.07783 30193 ft 362 kts 284°
2026-04-12 20:44 29.10999 91.04988 30304 ft 369 kts 284°
2026-04-12 20:44 29.11729 91.02149 30472 ft 374 kts 284°
2026-04-12 20:45 29.12465 90.99289 30729 ft 375 kts 284°
2026-04-12 20:45 29.13197 90.96431 31107 ft 374 kts 284°
2026-04-12 20:45 29.13923 90.93586 31557 ft 372 kts 284°
2026-04-12 20:45 29.14650 90.90741 31851 ft 375 kts 284°
2026-04-12 20:46 29.15384 90.87859 31919 ft 381 kts 284°
2026-04-12 20:46 29.16894 90.81919 31898 ft 396 kts 284°
2026-04-12 20:47 29.18452 90.75801 31917 ft 404 kts 284°
2026-04-12 20:47 29.20030 90.69569 31904 ft 411 kts 284°
2026-04-12 20:48 29.21631 90.63243 31909 ft 417 kts 284°
2026-04-12 20:48 29.22425 90.60110 32079 ft 409 kts 284°
2026-04-12 20:48 29.23202 90.57056 32124 ft 396 kts 284°
2026-04-12 20:48 29.23969 90.54023 31966 ft 400 kts 284°
2026-04-12 20:49 29.24748 90.50934 31913 ft 405 kts 284°
2026-04-12 20:49 29.26279 90.44859 31921 ft 389 kts 284°
2026-04-12 20:50 29.27755 90.38974 31928 ft 381 kts 284°
2026-04-12 20:50 29.29202 90.33186 31931 ft 375 kts 285°
2026-04-12 20:51 29.30635 90.27439 31938 ft 381 kts 284°
2026-04-12 20:51 29.31369 90.24480 31833 ft 390 kts 284°
2026-04-12 20:51 29.32120 90.21452 31733 ft 399 kts 284°
2026-04-12 20:51 29.32672 90.18313 31610 ft 405 kts 276°
2026-04-12 20:52 29.32819 90.15091 31473 ft 403 kts 273°
2026-04-12 20:52 29.32923 90.11897 31322 ft 399 kts 273°
2026-04-12 20:52 29.33025 90.08731 31171 ft 398 kts 273°
2026-04-12 20:52 29.33126 90.05576 31011 ft 395 kts 272°
2026-04-12 20:53 29.33226 90.02435 30831 ft 393 kts 273°
2026-04-12 20:53 29.33328 89.99301 30657 ft 393 kts 273°
2026-04-12 20:53 29.33432 89.96177 30474 ft 392 kts 272°
2026-04-12 20:53 29.33538 89.93065 30281 ft 390 kts 272°
2026-04-12 20:54 29.33643 89.89995 30127 ft 390 kts 272°
2026-04-12 20:54 29.33747 89.86846 29959 ft 391 kts 272°
2026-04-12 20:54 29.33843 89.83785 29924 ft 387 kts 272°
2026-04-12 20:55 29.34032 89.77679 29918 ft 379 kts 272°
2026-04-12 20:55 29.34223 89.71550 29926 ft 393 kts 272°
2026-04-12 20:56 29.34419 89.65164 29913 ft 407 kts 272°
2026-04-12 20:56 29.34611 89.58658 29906 ft 403 kts 272°
2026-04-12 20:56 29.34701 89.55544 29901 ft 378 kts 272°
2026-04-12 20:57 29.34784 89.52590 29903 ft 367 kts 272°
2026-04-12 20:57 29.34950 89.46773 29897 ft 372 kts 272°
2026-04-12 20:58 29.35128 89.40677 29886 ft 391 kts 272°
2026-04-12 20:58 29.35305 89.34360 29879 ft 399 kts 272°
2026-04-12 20:59 29.34607 89.28080 29878 ft 402 kts 254°
2026-04-12 20:59 29.31739 89.22523 29875 ft 416 kts 234°
2026-04-12 21:00 29.27797 89.17647 29873 ft 420 kts 234°
2026-04-12 21:00 29.23771 89.12680 30051 ft 425 kts 234°
2026-04-12 21:00 29.21773 89.10234 30563 ft 418 kts 234°
2026-04-12 21:01 29.19786 89.07800 30636 ft 421 kts 234°
2026-04-12 21:01 29.17773 89.05317 30394 ft 430 kts 234°
2026-04-12 21:01 29.15737 89.02807 30635 ft 427 kts 234°
2026-04-12 21:01 29.13734 89.00357 31263 ft 417 kts 235°
2026-04-12 21:02 29.11768 88.97957 31716 ft 412 kts 236°
2026-04-12 21:02 29.09818 88.95570 31855 ft 410 kts 236°
2026-04-12 21:02 29.07878 88.93190 31883 ft 409 kts 236°
2026-04-12 21:03 29.04038 88.88467 31885 ft 408 kts 236°
2026-04-12 21:03 29.00166 88.83728 31893 ft 408 kts 236°
2026-04-12 21:04 28.96289 88.78991 31910 ft 408 kts 236°
2026-04-12 21:04 28.92411 88.74260 31921 ft 408 kts 236°
2026-04-12 21:05 28.88527 88.69520 31922 ft 409 kts 236°
2026-04-12 21:05 28.84641 88.64781 31934 ft 409 kts 236°
2026-04-12 21:06 28.80748 88.60041 31948 ft 410 kts 236°
2026-04-12 21:06 28.76849 88.55305 31955 ft 410 kts 236°
2026-04-12 21:07 28.72945 88.50566 31967 ft 410 kts 236°
2026-04-12 21:07 28.69040 88.45831 31968 ft 411 kts 236°
2026-04-12 21:08 28.65131 88.41092 31968 ft 411 kts 236°
2026-04-12 21:08 28.61235 88.36385 31961 ft 411 kts 236°
2026-04-12 21:09 28.57308 88.31650 31973 ft 412 kts 236°
2026-04-12 21:09 28.53376 88.26907 31971 ft 412 kts 236°
2026-04-12 21:10 28.49429 88.22156 31980 ft 413 kts 236°
2026-04-12 21:10 28.45489 88.17415 31985 ft 413 kts 236°
2026-04-12 21:11 28.41542 88.12670 32005 ft 413 kts 236°
2026-04-12 21:11 28.37594 88.07927 32010 ft 413 kts 236°
2026-04-12 21:12 28.33638 88.03177 32021 ft 414 kts 236°
2026-04-12 21:12 28.29681 87.98440 32031 ft 414 kts 236°
2026-04-12 21:13 28.25725 87.93698 32046 ft 414 kts 236°
2026-04-12 21:13 28.22427 87.89755 32059 ft 415 kts 236°
2026-04-12 21:14 28.17806 87.84246 32083 ft 415 kts 236°
2026-04-12 21:14 28.13832 87.79508 32105 ft 415 kts 236°
2026-04-12 21:15 28.10493 87.75535 32108 ft 415 kts 236°
2026-04-12 21:15 28.06509 87.70793 32135 ft 415 kts 236°
2026-04-12 21:16 28.02547 87.66087 32140 ft 416 kts 236°
2026-04-12 21:16 27.98551 87.61347 32151 ft 417 kts 236°
2026-04-12 21:17 27.94546 87.56594 32155 ft 418 kts 236°
2026-04-12 21:17 27.90528 87.51841 32145 ft 417 kts 235°
2026-04-12 21:18 27.86510 87.47088 32152 ft 419 kts 235°
2026-04-12 21:18 27.81953 87.42833 32143 ft 439 kts 219°
2026-04-12 21:18 27.79136 87.41373 32142 ft 450 kts 212°
2026-04-12 21:19 27.76235 87.40051 32130 ft 448 kts 213°
2026-04-12 21:19 27.70448 87.37394 32122 ft 450 kts 212°
2026-04-12 21:20 27.64644 87.34710 32115 ft 452 kts 212°
2026-04-12 21:20 27.58822 87.32017 32085 ft 451 kts 212°
2026-04-12 21:21 27.53018 87.29345 32073 ft 452 kts 212°
2026-04-12 21:21 27.47181 87.26654 32069 ft 454 kts 213°
2026-04-12 21:22 27.41365 87.23989 32058 ft 454 kts 213°
2026-04-12 21:22 27.38636 87.22364 32051 ft 435 kts 226°
2026-04-12 21:22 27.36445 87.20141 32040 ft 416 kts 239°
2026-04-12 21:22 27.34851 87.17505 32038 ft 401 kts 251°
2026-04-12 21:23 27.33882 87.14615 32037 ft 390 kts 262°
2026-04-12 21:23 27.33543 87.11628 32045 ft 383 kts 273°
2026-04-12 21:23 27.33794 87.08659 32050 ft 380 kts 283°
2026-04-12 21:24 27.34948 87.02859 32047 ft 380 kts 283°
2026-04-12 21:24 27.36086 86.97039 32062 ft 381 kts 283°
2026-04-12 21:25 27.37214 86.91236 32061 ft 380 kts 283°
2026-04-12 21:25 27.38350 86.85415 32067 ft 379 kts 283°
2026-04-12 21:26 27.39491 86.79612 32082 ft 380 kts 283°
2026-04-12 21:26 27.41190 86.70881 32109 ft 381 kts 283°
2026-04-12 21:27 27.42312 86.65070 32113 ft 379 kts 283°
2026-04-12 21:27 27.43433 86.59268 32115 ft 379 kts 283°
2026-04-12 21:28 27.44554 86.53475 32120 ft 379 kts 283°
2026-04-12 21:28 27.45668 86.47689 32123 ft 378 kts 283°
2026-04-12 21:29 27.46769 86.41927 32124 ft 379 kts 283°
2026-04-12 21:29 27.47325 86.39023 31689 ft 380 kts 283°
2026-04-12 21:29 27.47887 86.36093 30748 ft 385 kts 282°
2026-04-12 21:30 27.48454 86.33131 29874 ft 389 kts 282°
2026-04-12 21:30 27.49028 86.30141 28954 ft 391 kts 282°
2026-04-12 21:30 27.49601 86.27145 28031 ft 392 kts 282°
2026-04-12 21:30 27.50103 86.24116 26990 ft 394 kts 279°
2026-04-12 21:31 27.50506 86.21052 25975 ft 397 kts 278°
2026-04-12 21:31 27.50849 86.17955 24982 ft 400 kts 278°
2026-04-12 21:31 27.51168 86.14843 24013 ft 401 kts 277°
2026-04-12 21:31 27.51491 86.11732 22968 ft 400 kts 278°
2026-04-12 21:32 27.51829 86.08622 22033 ft 398 kts 278°
2026-04-12 21:32 27.52173 86.05615 21833 ft 377 kts 278°
2026-04-12 21:32 27.52511 86.02754 21694 ft 360 kts 278°
2026-04-12 21:32 27.52836 86.00025 21576 ft 344 kts 278°
2026-04-12 21:33 27.53149 85.97394 21443 ft 333 kts 277°
2026-04-12 21:33 27.53450 85.94862 21320 ft 321 kts 278°
2026-04-12 21:33 27.53739 85.92407 21193 ft 310 kts 278°
2026-04-12 21:33 27.54015 85.90046 21022 ft 298 kts 278°
2026-04-12 21:34 27.54285 85.87759 20821 ft 290 kts 278°
2026-04-12 21:34 27.54547 85.85511 20740 ft 289 kts 279°
2026-04-12 21:34 27.55004 85.83304 20477 ft 292 kts 286°
2026-04-12 21:34 27.55615 85.81101 19986 ft 294 kts 287°
2026-04-12 21:35 27.56233 85.78902 19448 ft 296 kts 287°
2026-04-12 21:35 27.56857 85.76689 18934 ft 298 kts 286°
2026-04-12 21:35 27.57482 85.74467 18609 ft 296 kts 287°
2026-04-12 21:35 27.58103 85.72253 18234 ft 296 kts 286°
2026-04-12 21:36 27.58717 85.70042 17775 ft 295 kts 287°
2026-04-12 21:36 27.59327 85.67841 17378 ft 294 kts 286°
2026-04-12 21:36 27.59934 85.65651 16983 ft 292 kts 286°
2026-04-12 21:36 27.60394 85.63438 16585 ft 290 kts 276°
2026-04-12 21:37 27.60347 85.61175 16200 ft 290 kts 263°
2026-04-12 21:37 27.59787 85.58987 15831 ft 292 kts 252°
2026-04-12 21:37 27.59052 85.56889 15424 ft 291 kts 251°
2026-04-12 21:37 27.58309 85.54764 15087 ft 290 kts 252°
2026-04-12 21:38 27.57578 85.52663 14745 ft 287 kts 252°
2026-04-12 21:38 27.56851 85.50574 14410 ft 285 kts 251°
2026-04-12 21:38 27.56126 85.48495 14090 ft 284 kts 252°
2026-04-12 21:38 27.55405 85.46432 13727 ft 283 kts 251°
2026-04-12 21:39 27.54686 85.44371 13304 ft 282 kts 252°
2026-04-12 21:39 27.53965 85.42301 12909 ft 283 kts 251°
2026-04-12 21:39 27.53249 85.40241 12580 ft 282 kts 251°
2026-04-12 21:39 27.52531 85.38182 12222 ft 282 kts 251°
2026-04-12 21:40 27.51808 85.36114 11643 ft 289 kts 251°
2026-04-12 21:40 27.51057 85.33961 10884 ft 301 kts 251°
2026-04-12 21:40 27.50277 85.31728 10106 ft 312 kts 250°
2026-04-12 21:40 27.49468 85.29419 9268 ft 322 kts 250°
2026-04-12 21:41 27.48698 85.27047 8809 ft 317 kts 257°
2026-04-12 21:41 27.48728 85.24655 8659 ft 303 kts 286°
2026-04-12 21:41 27.49788 85.22639 8208 ft 302 kts 316°
2026-04-12 21:41 27.51631 85.21564 7921 ft 302 kts 347°
2026-04-12 21:42 27.53681 85.21715 7656 ft 303 kts 19°
2026-04-12 21:42 27.55388 85.23051 7387 ft 302 kts 51°
2026-04-12 21:42 27.56462 85.25057 7105 ft 297 kts 60°
2026-04-12 21:42 27.57644 85.26973 6792 ft 290 kts 47°
2026-04-12 21:43 27.58921 85.28621 6459 ft 276 kts 51°
2026-04-12 21:43 27.60061 85.30243 6118 ft 252 kts 46°
2026-04-12 21:43 27.61279 85.31541 5819 ft 230 kts 38°
2026-04-12 21:43 27.62533 85.32536 5546 ft 212 kts 30°
2026-04-12 21:44 27.63805 85.33232 5301 ft 195 kts 21°
2026-04-12 21:44 27.64996 85.33776 5015 ft 174 kts 21°
2026-04-12 21:44 27.66072 85.34269 4847 ft 160 kts 21°
2026-04-12 21:44 27.67078 85.34730 4634 ft 154 kts 21°
2026-04-12 21:45 27.68055 85.35192 4459 ft 152 kts 22°
2026-04-12 21:45 27.68996 85.35620 4352 ft 133 kts 22°
2026-04-12 21:45 27.69669 85.35924 4371 ft 59 kts 21°
2026-04-12 21:45 27.69841 85.36003 4380 ft 17 kts 22°
2026-04-12 21:46 27.69898 85.35971 4377 ft 9 kts 290°
2026-04-12 21:46 27.69930 85.35921 4376 ft 8 kts 330°
2026-04-12 21:46 27.69972 85.35883 4377 ft 7 kts 297°
2026-04-12 21:46 27.69986 85.35842 4374 ft 0 kts 291°